Manhattan, KS

2:14 AM CST on December 08, 2019 (GMT -0600)
Manhattan Regional

Weather History for KMHK - October, 2019

Change the Weather History Date:

Tuesday, October 8, 2019

  Actual Average Record
Temperature  
Mean Temperature 59 °F 58 °F  
Max Temperature 75 °F 71 °F 90 °F (2010)
Min Temperature 42 °F 45 °F 21 °F (2000)
Degree Days  
Heating Degree Days 6 8  
Month to date heating degree days 47 57  
Since 1 July heating degree days 48 127  
Cooling Degree Days 0 1  
Month to date cooling degree days 13 15  
Year to date cooling degree days 1608 1352  
Growing Degree Days 8 (Base 50)    
Moisture  
Dew Point 45 °F    
Average Humidity 65    
Maximum Humidity 96    
Minimum Humidity 33    
Precipitation  
Precipitation 0.00 in 0.07 in 0.85 in (2003)
Month to date precipitation 1.93 0.67  
Year to date precipitation 39.91 28.38  
Sea Level Pressure  
Sea Level Pressure 30.03 in    
Wind  
Wind Speed 8 mph (South)    
Max Wind Speed 21 mph    
Max Gust Speed 28 mph    
Visibility 10 miles    
Events      
T = Trace of Precipitation, MM = Missing Value Source: NWS Daily Summary

Daily Weather History Graph

Daily Weather History Graph

Search for Another Location

Airport or City:

Astronomy

Oct. 08, 2019 Rise Set
Actual Time 7:29 AM CDT 6:58 PM CDT
Civil Twilight 7:02 AM CDT 7:25 PM CDT
Nautical Twilight 6:31 AM CDT 7:56 PM CDT
Astronomical Twilight 6:00 AM CDT 8:27 PM CDT
Moon 4:55 PM CDT 2:22 AM CDT
Length of Visible Light 12h 22m
Length of Day
11h 29m
Waxing Gibbous, 78% of the Moon is Illuminated
Oct 8
Waxing Gibbous
Oct 13
Full
Oct 21
Last Quarter
Oct 27
New
Nov 4
First Quarter

Hourly Weather History & Observations

Time (CDT) Temp. Dew Point Humidity Pressure Visibility Wind Dir Wind Speed Gust Speed Precip Events Conditions
12:52 AM 45.0 °F 42.1 °F 90% 30.15 in 10.0 mi Calm Calm - N/A   Clear
1:52 AM 42.1 °F 41.0 °F 96% 30.14 in 10.0 mi Calm Calm - N/A   Clear
2:52 AM 45.0 °F 41.0 °F 86% 30.14 in 10.0 mi Calm Calm - N/A   Clear
3:52 AM 44.1 °F 41.0 °F 89% 30.12 in 10.0 mi Calm Calm - N/A   Clear
4:52 AM 48.0 °F 42.1 °F 80% 30.12 in 10.0 mi Calm Calm - N/A   Clear
5:52 AM 46.9 °F 42.1 °F 83% 30.12 in 10.0 mi Calm Calm - N/A   Clear
6:52 AM 45.0 °F 41.0 °F 86% 30.12 in 10.0 mi Calm Calm - N/A   Clear
7:52 AM 48.9 °F 42.1 °F 77% 30.11 in 10.0 mi SSW 4.6 mph - N/A   Clear
8:52 AM 55.0 °F 45.0 °F 69% 30.11 in 10.0 mi South 4.6 mph - N/A   Clear
9:52 AM 62.1 °F 45.0 °F 53% 30.10 in 10.0 mi SSW 11.5 mph - N/A   Clear
10:52 AM 66.0 °F 45.0 °F 47% 30.08 in 10.0 mi SSW 16.1 mph 25.3 mph N/A   Clear
11:52 AM 69.1 °F 45.0 °F 42% 30.05 in 10.0 mi South 16.1 mph 21.9 mph N/A   Clear
12:52 PM 72.0 °F 43.0 °F 35% 30.03 in 10.0 mi SSW 13.8 mph 25.3 mph N/A   Clear
1:52 PM 73.0 °F 45.0 °F 37% 29.99 in 10.0 mi South 13.8 mph 24.2 mph N/A   Clear
2:52 PM 75.0 °F 45.0 °F 34% 29.96 in 10.0 mi South 16.1 mph 26.5 mph N/A   Clear
3:52 PM 75.0 °F 45.0 °F 34% 29.94 in 10.0 mi South 18.4 mph 25.3 mph N/A   Clear
4:52 PM 75.0 °F 45.0 °F 34% 29.92 in 10.0 mi South 12.7 mph 23.0 mph N/A   Clear
5:52 PM 73.0 °F 44.1 °F 35% 29.91 in 10.0 mi South 13.8 mph - N/A   Clear
6:52 PM 68.0 °F 48.0 °F 49% 29.92 in 10.0 mi SSE 5.8 mph - N/A   Clear
7:52 PM 63.0 °F 48.9 °F 60% 29.93 in 10.0 mi SSE 4.6 mph - N/A   Clear
8:52 PM 60.1 °F 48.9 °F 67% 29.94 in 10.0 mi SSE 3.5 mph - N/A   Clear
9:52 PM 57.0 °F 50.0 °F 77% 29.95 in 10.0 mi Calm Calm - N/A   Clear
10:52 PM 57.0 °F 50.0 °F 77% 29.94 in 10.0 mi South 3.5 mph - N/A   Clear
11:52 PM 60.1 °F 48.9 °F 67% 29.93 in 10.0 mi South 10.4 mph - N/A   Clear